Mackall AAF, NC

12:42 AM EDT on July 23, 2017 (GMT -0400)
Mackall Army Air Field

Weather History for KHFF - February, 2014

Change the Weather History Date:

Thursday, February 13, 2014

  Actual Average Record
Temperature  
Mean Temperature 33 °F -  
Max Temperature 37 °F 55 °F 69 °F (2009)
Min Temperature 29 °F 34 °F 17 °F (2012)
Degree Days  
Heating Degree Days 32    
Moisture  
Dew Point 31 °F    
Average Humidity 97    
Maximum Humidity 100    
Minimum Humidity 81    
Precipitation  
Precipitation 1.12 in - - ()
Sea Level Pressure  
Sea Level Pressure 29.60 in    
Wind  
Wind Speed 10 mph (NW)    
Max Wind Speed 15 mph    
Max Gust Speed 21 mph    
Visibility 6 miles    
Events Rain , Snow    
Averages and records for this station are not official NWS values.
T = Trace of Precipitation, MM = Missing Value Source: NWS Daily Summary

Daily Weather History Graph

Daily Weather History Graph

Search for Another Location

Airport or City:

Trip Planner

Search our weather history database for the weather conditions in past years. The results will help you decide how hot, cold, wet, or windy it might be!

Date:

Astronomy

Feb. 13, 2014 Rise Set
Actual Time 7:06 AM EST 5:58 PM EST
Civil Twilight 6:40 AM EST 6:24 PM EST
Nautical Twilight 6:10 AM EST 6:54 PM EST
Astronomical Twilight 5:40 AM EST 7:24 PM EST
Moon 5:05 PM EST (2/13) 5:57 AM EST (2/13)
Length of Visible Light 11h 44m
Length of Day
10h 52m
Waxing Gibbous, 98% of the Moon is Illuminated
Feb 13
Waxing Gibbous
Feb 14
Full
Feb 22
Last Quarter
Mar 1
New
Mar 8
First Quarter

Hourly Weather History & Observations

Time (EST) Temp. Windchill Dew Point Humidity Pressure Visibility Wind Dir Wind Speed Gust Speed Precip Events Conditions
12:06 AM 30.2 °F 21.3 °F 28.4 °F 93% 29.77 in 6.0 mi North 10.4 mph - N/A Rain Light Freezing Rain
12:16 AM 30.2 °F 20.2 °F 28.4 °F 93% 29.76 in 3.0 mi North 12.7 mph - N/A Snow Light Snow
12:25 AM 30.2 °F 19.8 °F 28.4 °F 93% 29.74 in 5.0 mi North 13.8 mph - N/A Rain Light Freezing Rain
12:37 AM 30.2 °F 20.2 °F 28.4 °F 93% 29.74 in 4.0 mi North 12.7 mph - N/A   Light Ice Pellets
12:56 AM 29.8 °F 19.8 °F 29.1 °F 97% 29.74 in 3.0 mi North 12.7 mph 19.6 mph 0.01 in Rain , Snow Light Freezing Rain
1:04 AM 30.2 °F 20.2 °F 30.2 °F 100% 29.72 in 5.0 mi NNE 12.7 mph - N/A Rain , Snow Light Freezing Rain
1:06 AM 30.2 °F 19.8 °F 30.2 °F 100% 29.72 in 5.0 mi North 13.8 mph - N/A Rain , Snow Light Freezing Rain
1:56 AM 30.7 °F 22.0 °F 30.0 °F 97% 29.73 in 8.0 mi NNW 10.4 mph 18.4 mph 0.11 in Rain , Snow Light Freezing Rain
2:11 AM 30.2 °F 22.6 °F 30.2 °F 100% 29.69 in 2.8 mi North 8.1 mph 18.4 mph N/A Rain , Snow Light Freezing Rain
2:16 AM 30.2 °F 19.3 °F 30.2 °F 100% 29.69 in 6.0 mi North 15.0 mph 20.7 mph N/A Rain , Snow Light Freezing Rain
2:36 AM 30.2 °F 20.2 °F 28.4 °F 93% 29.68 in 12.0 mi North 12.7 mph 19.6 mph N/A Snow Light Snow
2:46 AM 30.2 °F 21.3 °F 28.4 °F 93% 29.68 in 10.0 mi North 10.4 mph 19.6 mph N/A   Light Ice Pellets
2:50 AM 30.2 °F 20.8 °F 28.4 °F 93% 29.68 in 9.0 mi North 11.5 mph - N/A Rain Light Freezing Rain
2:56 AM 30.4 °F 22.2 °F 29.5 °F 96% 29.70 in 10.0 mi NNW 9.2 mph 17.3 mph 0.09 in Rain Light Freezing Rain
3:11 AM 30.2 °F 23.4 °F 30.2 °F 100% 29.67 in 6.0 mi North 6.9 mph 15.0 mph N/A   Light Ice Pellets
3:18 AM 30.2 °F 20.8 °F 30.2 °F 100% 29.66 in 7.0 mi North 11.5 mph - N/A Rain Light Freezing Rain
3:22 AM 30.2 °F 20.8 °F 30.2 °F 100% 29.66 in 10.0 mi North 11.5 mph - N/A Rain Light Freezing Rain
3:32 AM 30.2 °F 21.3 °F 30.2 °F 100% 29.66 in 12.0 mi North 10.4 mph - N/A Rain Light Freezing Rain
3:33 AM 30.2 °F 20.8 °F 30.2 °F 100% 29.66 in 12.0 mi North 11.5 mph - N/A Rain Light Freezing Rain
3:38 AM 30.2 °F 21.3 °F 28.4 °F 93% 29.65 in 12.0 mi North 10.4 mph 17.3 mph N/A Rain Light Freezing Rain
3:42 AM 30.2 °F 22.6 °F 28.4 °F 93% 29.65 in 12.0 mi North 8.1 mph - N/A Rain Light Freezing Rain
3:48 AM 30.2 °F 20.8 °F 28.4 °F 93% 29.64 in 12.0 mi North 11.5 mph - N/A Snow Light Snow
3:55 AM 30.2 °F 20.2 °F 28.4 °F 93% 29.64 in 11.0 mi NNE 12.7 mph - N/A Rain , Snow Light Freezing Rain
3:56 AM 30.2 °F 21.3 °F 29.3 °F 96% 29.66 in 11.0 mi North 10.4 mph - 0.03 in Rain , Snow Light Freezing Rain
4:23 AM 30.2 °F 20.8 °F 28.4 °F 93% 29.62 in 12.0 mi North 11.5 mph - N/A Snow Light Snow
4:24 AM 30.2 °F 20.2 °F 28.4 °F 93% 29.62 in 12.0 mi North 12.7 mph - N/A   Overcast
4:56 AM 30.0 °F 21.7 °F 29.1 °F 96% 29.64 in 12.0 mi North 9.2 mph - 0.02 in   Mostly Cloudy
5:26 AM 30.2 °F 21.3 °F 28.4 °F 93% 29.61 in 12.0 mi North 10.4 mph - N/A Snow Light Snow
5:40 AM 30.2 °F 21.9 °F 28.4 °F 93% 29.61 in 9.0 mi North 9.2 mph - N/A   Light Freezing Drizzle
5:56 AM 29.8 °F 21.5 °F 29.1 °F 97% 29.62 in 7.0 mi North 9.2 mph - 0.02 in Rain Light Freezing Rain
5:57 AM 30.2 °F 21.3 °F 28.4 °F 93% 29.60 in 7.0 mi North 10.4 mph - N/A Rain Light Freezing Rain
6:27 AM 30.2 °F 21.9 °F 28.4 °F 93% 29.60 in 6.0 mi North 9.2 mph - N/A   Light Freezing Drizzle
6:34 AM 30.2 °F 22.6 °F 28.4 °F 93% 29.61 in 5.0 mi North 8.1 mph - N/A Snow Light Snow
6:50 AM 30.2 °F 22.6 °F 28.4 °F 93% 29.59 in 4.0 mi North 8.1 mph - N/A Rain Light Freezing Rain
6:56 AM 29.8 °F 23.0 °F 29.5 °F 99% 29.62 in 4.0 mi North 6.9 mph - 0.01 in Rain Light Freezing Rain
7:01 AM 30.2 °F 22.6 °F 30.2 °F 100% 29.59 in 2.8 mi North 8.1 mph - N/A Rain Light Freezing Rain
7:16 AM 30.2 °F 22.6 °F 30.2 °F 100% 29.58 in 2.8 mi North 8.1 mph - N/A Rain Light Freezing Rain
7:18 AM 30.2 °F 22.6 °F 30.2 °F 100% 29.58 in 3.0 mi North 8.1 mph - N/A Snow Light Snow
7:20 AM 30.2 °F 22.6 °F 30.2 °F 100% 29.58 in 2.8 mi North 8.1 mph - N/A   Overcast
7:25 AM 30.2 °F 23.4 °F 30.2 °F 100% 29.58 in 3.0 mi North 6.9 mph - N/A   Overcast
7:35 AM 30.2 °F 21.9 °F 30.2 °F 100% 29.57 in 3.0 mi North 9.2 mph - N/A   Overcast
7:38 AM 30.2 °F 20.8 °F 30.2 °F 100% 29.56 in 3.0 mi North 11.5 mph - N/A Snow Light Snow
7:53 AM 30.2 °F 21.3 °F 28.4 °F 93% 29.56 in 3.0 mi North 10.4 mph - N/A   Overcast
7:56 AM 29.8 °F 20.9 °F 29.3 °F 98% 29.58 in 3.0 mi North 10.4 mph - 0.02 in   Overcast
7:57 AM 30.2 °F 20.8 °F 28.4 °F 93% 29.55 in 2.8 mi North 11.5 mph - N/A Snow Light Snow
8:08 AM 30.2 °F 20.8 °F 30.2 °F 100% 29.56 in 2.8 mi NNE 11.5 mph - N/A   Light Freezing Drizzle
8:13 AM 30.2 °F 22.6 °F 30.2 °F 100% 29.56 in 3.0 mi NNE 8.1 mph - N/A   Light Freezing Drizzle
8:23 AM 30.2 °F 22.6 °F 30.2 °F 100% 29.56 in 3.0 mi North 8.1 mph - N/A   Overcast
8:33 AM 30.2 °F 22.6 °F 30.2 °F 100% 29.56 in 4.0 mi NNE 8.1 mph - N/A   Overcast
8:53 AM 30.2 °F 25.4 °F 30.2 °F 100% 29.56 in 4.0 mi North 4.6 mph - N/A   Overcast
8:56 AM 30.2 °F 25.4 °F 29.8 °F 99% 29.58 in 3.0 mi North 4.6 mph - 0.02 in   Overcast
8:59 AM 30.2 °F 24.3 °F 30.2 °F 100% 29.56 in 2.8 mi North 5.8 mph - N/A Snow Light Snow
9:09 AM 30.2 °F 23.4 °F 30.2 °F 100% 29.56 in 1.8 mi North 6.9 mph - N/A Snow Light Snow Showers
9:14 AM 30.2 °F 24.3 °F 30.2 °F 100% 29.55 in 1.5 mi North 5.8 mph - N/A Snow Light Snow
9:19 AM 30.2 °F 24.3 °F 30.2 °F 100% 29.55 in 1.2 mi North 5.8 mph - N/A Snow Light Snow
9:29 AM 30.2 °F 25.4 °F 30.2 °F 100% 29.55 in 1.5 mi NNW 4.6 mph - N/A Snow Light Snow
9:34 AM 30.2 °F 25.4 °F 30.2 °F 100% 29.56 in 1.8 mi NW 4.6 mph - N/A   Light Freezing Rain
9:44 AM 30.2 °F 25.4 °F 30.2 °F 100% 29.56 in 1.5 mi NW 4.6 mph - N/A Rain Light Freezing Rain
9:56 AM 30.6 °F 24.7 °F 30.4 °F 99% 29.58 in 1.6 mi NW 5.8 mph - 0.03 in Rain Light Freezing Rain
10:01 AM 30.2 °F 23.4 °F 30.2 °F 100% 29.56 in 1.9 mi WNW 6.9 mph - N/A Rain Light Freezing Rain
10:16 AM 30.2 °F 24.3 °F 30.2 °F 100% 29.56 in 2.0 mi WNW 5.8 mph - N/A Rain Light Freezing Rain
10:21 AM 30.2 °F 25.4 °F 30.2 °F 100% 29.56 in 2.0 mi WNW 4.6 mph - N/A Rain Light Freezing Rain
10:41 AM 32.0 °F 25.6 °F 30.2 °F 93% 29.56 in 1.8 mi WNW 6.9 mph - N/A Rain Light Rain
10:46 AM 32.0 °F 25.6 °F 30.2 °F 93% 29.57 in 1.5 mi West 6.9 mph - N/A Rain Light Rain
10:56 AM 31.5 °F 25.8 °F 31.1 °F 99% 29.59 in 2.0 mi West 5.8 mph - 0.04 in Rain Light Freezing Rain
11:06 AM 32.0 °F 25.6 °F 30.2 °F 93% 29.56 in 1.9 mi West 6.9 mph - N/A Rain Light Rain
11:11 AM 32.0 °F 26.4 °F 32.0 °F 100% 29.56 in 2.0 mi West 5.8 mph - N/A Rain Light Rain
11:31 AM 32.0 °F 27.5 °F 32.0 °F 100% 29.55 in 1.6 mi WNW 4.6 mph - N/A Snow Light Snow
11:36 AM 32.0 °F 25.6 °F 32.0 °F 100% 29.55 in 1.4 mi WNW 6.9 mph - N/A Snow Light Snow
11:41 AM 32.0 °F 26.4 °F 32.0 °F 100% 29.55 in 0.9 mi West 5.8 mph - N/A Snow Light Snow
11:46 AM 32.0 °F 26.4 °F 32.0 °F 100% 29.56 in 0.5 mi West 5.8 mph - N/A Snow Snow
11:56 AM 31.6 °F 25.1 °F 31.5 °F 99% 29.57 in 0.8 mi West 6.9 mph - 0.06 in Snow Snow
12:01 PM 32.0 °F 26.4 °F 32.0 °F 100% 29.55 in 1.2 mi West 5.8 mph - N/A Snow Snow
12:16 PM 32.0 °F 24.8 °F 32.0 °F 100% 29.54 in 1.1 mi West 8.1 mph - N/A Snow Light Snow
12:21 PM 32.0 °F 25.6 °F 32.0 °F 100% 29.53 in 1.2 mi West 6.9 mph - N/A Snow Light Snow
12:26 PM 32.0 °F 26.4 °F 32.0 °F 100% 29.53 in 1.9 mi West 5.8 mph - N/A Snow Light Snow
12:31 PM 32.0 °F 25.6 °F 32.0 °F 100% 29.53 in 2.2 mi West 6.9 mph - N/A Snow Light Snow
12:46 PM 32.0 °F 25.6 °F 32.0 °F 100% 29.53 in 4.0 mi West 6.9 mph - N/A Snow Light Snow
12:56 PM 32.4 °F 25.3 °F 31.6 °F 97% 29.54 in 8.0 mi West 8.1 mph - 0.13 in Rain , Snow Light Rain
1:11 PM 32.0 °F 24.8 °F 32.0 °F 100% 29.52 in 2.5 mi West 8.1 mph - N/A Snow Light Snow
1:16 PM 32.0 °F 24.2 °F 32.0 °F 100% 29.51 in 4.0 mi West 9.2 mph - N/A Snow Light Snow
1:26 PM 32.0 °F 24.8 °F 32.0 °F 100% 29.51 in 2.5 mi West 8.1 mph - N/A Snow Light Snow
1:36 PM 32.0 °F 24.8 °F 32.0 °F 100% 29.51 in 1.9 mi West 8.1 mph - N/A Snow Light Snow
1:46 PM 32.0 °F 24.8 °F 32.0 °F 100% 29.51 in 1.5 mi West 8.1 mph - N/A Snow Light Snow
1:51 PM 32.0 °F 24.2 °F 32.0 °F 100% 29.51 in 1.4 mi West 9.2 mph - N/A Snow Light Snow
1:56 PM 32.7 °F 24.5 °F 32.0 °F 97% 29.53 in 1.2 mi WNW 10.4 mph - 0.15 in Snow Light Snow
2:56 PM 33.3 °F 25.7 °F 32.4 °F 96% 29.53 in 4.0 mi West 9.2 mph - 0.13 in Snow Light Snow
3:01 PM 33.8 °F 25.8 °F 32.0 °F 93% 29.51 in 2.8 mi West 10.4 mph - N/A Snow Light Snow
3:06 PM 33.8 °F 25.8 °F 32.0 °F 93% 29.51 in 3.0 mi West 10.4 mph - N/A Snow Light Snow
3:43 PM 33.8 °F 25.8 °F 33.8 °F 100% 29.52 in 12.0 mi West 10.4 mph - N/A   Mostly Cloudy
3:56 PM 34.0 °F 26.0 °F 33.1 °F 96% 29.55 in 12.0 mi West 10.4 mph - 0.09 in   Overcast
4:56 PM 35.1 °F 27.4 °F 34.0 °F 96% 29.57 in 12.0 mi West 10.4 mph - 0.08 in   Mostly Cloudy
5:01 PM 35.6 °F 28.0 °F 33.8 °F 93% 29.55 in 12.0 mi West 10.4 mph - N/A   Mostly Cloudy
5:56 PM 35.6 °F 28.6 °F 34.7 °F 97% 29.60 in 12.0 mi West 9.2 mph - 0.06 in   Mostly Cloudy
6:02 PM 35.6 °F 28.6 °F 35.6 °F 100% 29.58 in 12.0 mi West 9.2 mph - N/A   Overcast
6:56 PM 35.6 °F 28.6 °F 35.1 °F 98% 29.62 in 11.0 mi West 9.2 mph - 0.02 in   Mostly Cloudy
7:12 PM 35.6 °F 29.2 °F 35.6 °F 100% 29.61 in 10.0 mi West 8.1 mph - N/A   Scattered Clouds
7:56 PM 35.4 °F 29.0 °F 34.9 °F 98% 29.64 in 11.0 mi WSW 8.1 mph - N/A   Clear
8:56 PM 37.4 °F 30.3 °F 33.3 °F 85% 29.68 in 12.0 mi West 10.4 mph - N/A   Clear
9:56 PM 37.2 °F 30.6 °F 32.0 °F 81% 29.71 in 12.0 mi West 9.2 mph - N/A   Clear
10:56 PM 36.3 °F 29.5 °F 32.0 °F 84% 29.73 in 12.0 mi West 9.2 mph - N/A   Clear
11:56 PM 35.2 °F 30.3 °F 31.5 °F 86% 29.75 in 12.0 mi WSW 5.8 mph - N/A   Clear